Regional Weather Roundup
Issued by NWS

Home | Current Version | Previous Version | Text Only | Print | Product List | Glossary On
Versions: 1 2 3 4 5 6 7 8 9 10 11 12 13 14 15 16 17 18 19 20 21 22 23 24 25 26 27 28 29 30 31 32 33 34 35 36 37 38 39 40 41 42 43 44 45 46 47 48 49 50
179
ASUS43 KOAX 220202
RWRNE

WEATHER ROUNDUP FOR NEBRASKA
NATIONAL WEATHER SERVICE OMAHA NE
900 PM CDT FRI JUL 21 2017

NOTES: SATELLITE DATA IS BEING USED TO AUGMENT CLOUD COVER ABOVE
       12000 FEET.
       "FAIR" INDICATES FEW OR NO CLOUDS BELOW 12,000 FEET WITH NO
       SIGNIFICANT WEATHER AND/OR OBSTRUCTIONS TO VISIBILITY.


NEZ001>004-019>022-054>056-220300-
NEBRASKA PANHANDLE

CITY           SKY/WX    TMP DP  RH WIND       PRES   REMARKS
SCOTTSBLUFF    CLOUDY    85  57  38 CALM      29.99R
ALLIANCE       PTCLDY    80  59  48 W5        29.97R
CHADRON        CLEAR     86  52  30 NE5       29.92R HAZE
GORDON         FAIR      80  62  54 CALM      29.93R
KIMBALL        CLOUDY    82  50  32 NW8       30.10R
SIDNEY         CLOUDY    86  44  23 NE6       30.02R
$$

NEZ057>060-069>072-079>082-220300-
SOUTHWEST NEBRASKA

CITY           SKY/WX    TMP DP  RH WIND       PRES   REMARKS
NORTH PLATTE   CLEAR     87  55  33 N6        29.84R
IMPERIAL       CLEAR     88  50  27 N10       29.88R
LEXINGTON      MOCLDY    87  80  78 NE5       29.81R HX 102
MCCOOK         CLEAR     92  63  38 S7        29.80S HX  93
OGALLALA       CLEAR     86  48  26 N7        29.90R
$$

NEZ005>010-023>029-035>040-094-220300-
NORTH CENTRAL NEBRASKA

CITY           SKY/WX    TMP DP  RH WIND       PRES   REMARKS
VALENTINE      CLEAR     91  56  30 N6        29.82R
AINSWORTH      CLEAR     83  73  71 E8        29.85R HX  90
BROKEN BOW     PTCLDY    85  66  53 NE16G28   29.83R
O`NEILL        CLOUDY    86  73  66 S5        29.80F HX  93
ORD            TSTM      82  62  50 NE20G37   29.79F
THEDFORD       CLEAR     90  57  32 CALM      29.87R
$$

NEZ041-046>049-061>064-073>077-083>087-220300-
SOUTH CENTRAL NEBRASKA

CITY           SKY/WX    TMP DP  RH WIND       PRES   REMARKS
GRAND ISLAND   PTCLDY    87  79  76 N8        29.78R HX 101
AURORA         CLEAR     89  74  62 S5        29.77R HX  98
HASTINGS       CLEAR     88  74  63 CALM      29.79R HX  96
HEBRON         CLEAR     88  73  62 S6        29.74R HX  96
HOLDREGE       CLEAR     86  79  79 SE3       29.79R HX 100
KEARNEY        PTCLDY    87  81  82 E5        29.80R HX 104
YORK           CLEAR     86  79  79 S7        29.76S HX  99
$$

NEZ011>018-030>034-042>045-220300-
NORTHEAST NEBRASKA

CITY           SKY/WX    TMP DP  RH WIND       PRES   REMARKS
NORFOLK        CLOUDY    85  74  69 W5        29.76S HX  92
ALBION         CLOUDY    75  70  85 NW3       29.79S
BLAIR          CLEAR     90  77  64 N6        29.74R HX 102
COLUMBUS       CLOUDY    84  77  79 NW3       29.76R HX  94
FREMONT        CLOUDY    90  76  62 CALM      29.73S HX 101
TEKAMAH        CLOUDY    88  80  77 CALM      29.70F HX 104
WAYNE          CLOUDY    84  84  99 CALM      29.74S HX 105
$$

NEZ050>053-065>068-078-088>093-220300-
SOUTHEAST NEBRASKA

CITY           SKY/WX    TMP DP  RH WIND       PRES   REMARKS
LINCOLN        CLEAR     93  73  52 SW3       29.73R HX 102
OMAHA EPPLEY   PTCLDY    94  75  54 S7        29.71R HX 105
BEATRICE       CLEAR     93  68  43 S10       29.73S HX  97
NEBRASKA CITY  CLEAR     86  72  63 S9        29.74S HX  92
PLATTSMOUTH    CLEAR     89  73  59 S8        29.73S HX  96
$$

NEZ044-045-051>053-067-220300-
OMAHA AREA

CITY           SKY/WX    TMP DP  RH WIND       PRES   REMARKS
OMAHA EPPLEY   PTCLDY    94  75  54 S7        29.71R HX 105
BLAIR          CLEAR     90  77  64 N6        29.74R HX 102
FREMONT        CLOUDY    90  76  62 CALM      29.73S HX 101
MILLARD        CLEAR     92  80  67 SE3       29.71S HX 109
OFFUTT AFB     CLEAR     89  75  63 S9        29.71S HX  99
PLATTSMOUTH    CLEAR     89  73  59 S8        29.73S HX  96
WAHOO          FAIR      85  81  86 N7        29.73R HX 100
$$




USA.gov is the U.S. government's official web portal to all federal, state and local government web resources and services.